Location: Poigny-la-Forêt
(48.6876°N, 1.7701°E)
Time: 19:38:15
(UTC+01:00)

OTV 5 (USA 277) - Pass Details

Date: 20 October 2019
Orbit: 310 x 324 km, 54.5° (Epoch: 17 October)

Event Time Altitude Azimuth Distance (km) Brightness Sun altitude
Exits shadow 07:05:03 17° 219° (SW) 922 ? -13.1°
Drops below altitude 10° 07:06:45 10° 181° (S) 1,230 ? -12.8°
Sets 07:09:06 0° 159° (SSE) 2,053 ? -12.4°
